User: anonymous   Login
Location: Stara Lesna
(49.1528°N, 20.2911°E)
Time: 01:13:30
(UTC+02:00)
Language:

Helios 1B rocket - Orbit

View from above orbital plane
View from above orbital plane
View from above satellite
View from above satellite

Ground track
Ground track

The orbit data is extracted from the following two-line orbital elements,

1 25979U 99064C   20262.88294360 +.00000325 +00000-0 +34568-4 0  9992
2 25979 098.1434 184.6976 0006355 358.8864 001.2340 14.96043481128017
Epoch (UTC): 18 September 2020 21:11:26
Eccentricity: 0.0006355
inclination: 98.1434°
perigee height: 575 km
apogee height: 583 km
right ascension of ascending node: 184.6976°
argument of perigee: 358.8864°
revolutions per day: 14.96043481
mean anomaly at epoch: 1.2340°
orbit number at epoch: 12801

The dashed part of the orbit path shows where the satellite is in the earth's shadow,  

DLR